This is the latest recevied weather packets stored in our database for station/object YO8PIC-12. If no packets are shown the sender has not sent any weather packets the latest 10 day(s).
| Time | Temp. | Humidity | Pressure | Rain* | Wind** | Luminosity | Snow |
|---|---|---|---|---|---|---|---|
| 1787779754 | 20.56° C | 67% | 1025.4 hPa | - | - | - | - |
| 1787779154 | 20.56° C | 67% | 1025.4 hPa | - | - | - | - |
| 1787778554 | 21.11° C | 66% | 1025.5 hPa | - | - | - | - |
| 1787777954 | 21.11° C | 66% | 1025.5 hPa | - | - | - | - |
| 1787777354 | 21.11° C | 66% | 1025.3 hPa | - | - | - | - |
| 1787776754 | 20.56° C | 67% | 1025.2 hPa | - | - | - | - |
| 1787776154 | 21.11° C | 65% | 1025.3 hPa | - | - | - | - |
| 1787775554 | 21.11° C | 65% | 1025.3 hPa | - | - | - | - |
| 1787774954 | 21.67° C | 64% | 1025.1 hPa | - | - | - | - |
| 1787774354 | 21.67° C | 63% | 1025.1 hPa | - | - | - | - |
| 1787773754 | 21.67° C | 62% | 1025.2 hPa | - | - | - | - |
| 1787773154 | 21.67° C | 62% | 1025 hPa | - | - | - | - |
| 1787772554 | 21.67° C | 62% | 1025.4 hPa | - | - | - | - |
| 1787771954 | 22.22° C | 62% | 1025.4 hPa | - | - | - | - |
| 1787771354 | 22.22° C | 62% | 1025.4 hPa | - | - | - | - |
| 1787770754 | 22.22° C | 62% | 1025.1 hPa | - | - | - | - |
| 1787770154 | 22.22° C | 62% | 1025.1 hPa | - | - | - | - |
| 1787769554 | 22.22° C | 63% | 1025.4 hPa | - | - | - | - |
| 1787768954 | 21.67° C | 63% | 1025.3 hPa | - | - | - | - |
| 1787768354 | 22.22° C | 62% | 1025.3 hPa | - | - | - | - |
| 1787767753 | 22.22° C | 62% | 1025.3 hPa | - | - | - | - |
| 1787767154 | 22.22° C | 62% | 1025.3 hPa | - | - | - | - |
| 1787766554 | 22.22° C | 62% | 1025.1 hPa | - | - | - | - |
| 1787765954 | 22.22° C | 63% | 1025.2 hPa | - | - | - | - |
| 1787765353 | 22.22° C | 62% | 1024.9 hPa | - | - | - | - |
* Rain since midnight (hover to see other rain measurements)
** Current wind speed in m/s (hover to see current wind gust speed)